Weather History for Savannah, GA

Change the Weather History Date:

Friday, June 21, 2013

  Actual Average Record
Temperature  
Mean Temperature 78 °F 81 °F  
Max Temperature 87 °F 91 °F 102 °F (1981)
Min Temperature 68 °F 71 °F 59 °F (1965)
Degree Days  
Heating Degree Days 0 0  
Month to date heating degree days 0 0  
Since 1 June heating degree days 0 0  
Since 1 July heating degree days 1626 1812  
Cooling Degree Days 13 16  
Month to date cooling degree days 321 299  
Year to date cooling degree days 679 702  
Since 1 June cooling degree days 321 299  
Growing Degree Days 28 (Base 50)    
Moisture  
Dew Point 67 °F    
Average Humidity 68    
Maximum Humidity 90    
Minimum Humidity 46    
Precipitation  
Precipitation T in 0.21 in 1.79 in (1947)
Month to date precipitation 6.76 4.13  
Year to date precipitation 26.30 20.39  
Sea Level Pressure  
Sea Level Pressure 30.14 in    
Wind  
Wind Speed 8 mph (NE)    
Max Wind Speed 15 mph    
Max Gust Speed 20 mph    
Visibility 10 miles    
Events      
T = Trace of Precipitation, MM = Missing Value Source: NWS Daily Summary

Daily Weather History Graph

Daily Weather History Graph

Search for Another Location

Airport:

Trip Planner

Search our weather history database for the weather conditions in past years. The results will help you decide how hot, cold, wet, or windy it might be!

Date:

Astronomy

Jun. 21, 2013 Rise Set
Actual Time 6:18 AM EDT 8:34 PM EDT
Civil Twilight 5:50 AM EDT 9:02 PM EDT
Nautical Twilight 5:15 AM EDT 9:37 PM EDT
Astronomical Twilight 4:38 AM EDT 10:14 PM EDT
Moon 6:47 PM EDT (6/21) 4:28 AM EDT (6/21)
Length of Visible Light 15h 12m
Length of Day
14h 15m
Waxing Gibbous, 95% of the Moon is Illuminated
Jun 21
Waxing Gibbous
Jun 23
Full
Jun 30
Last Quarter
Jul 8
New
Jul 15
First Quarter

Hourly Weather History & Observations

Time (EDT) Temp. Heat Index Dew Point Humidity Pressure Visibility Wind Dir Wind Speed Gust Speed Precip Events Conditions
12:53 AM 73.0 °F - 66.9 °F 81% 30.14 in 10.0 mi NE 5.8 mph - N/A   Clear
1:53 AM 71.1 °F - 66.9 °F 87% 30.14 in 10.0 mi NNE 6.9 mph - N/A   Clear
2:53 AM 71.1 °F - 66.9 °F 87% 30.12 in 10.0 mi NNE 5.8 mph - N/A   Clear
3:53 AM 70.0 °F - 66.0 °F 87% 30.12 in 10.0 mi North 6.9 mph - N/A   Clear
4:53 AM 69.1 °F - 64.9 °F 87% 30.12 in 10.0 mi North 6.9 mph - N/A   Clear
5:53 AM 69.1 °F - 64.9 °F 87% 30.13 in 10.0 mi North 8.1 mph - N/A   Scattered Clouds
6:53 AM 69.1 °F - 64.9 °F 87% 30.14 in 10.0 mi NNE 8.1 mph - N/A   Mostly Cloudy
7:53 AM 71.1 °F - 64.9 °F 81% 30.15 in 10.0 mi NNE 8.1 mph - N/A   Mostly Cloudy
8:53 AM 73.9 °F - 66.0 °F 76% 30.17 in 10.0 mi NNE 10.4 mph - N/A   Mostly Cloudy
9:53 AM 78.1 °F - 68.0 °F 71% 30.17 in 10.0 mi NNE 13.8 mph - N/A   Mostly Cloudy
10:53 AM 80.1 °F 82.7 °F 68.0 °F 67% 30.18 in 10.0 mi NNE 11.5 mph - N/A   Overcast
11:53 AM 82.9 °F 86.5 °F 69.1 °F 63% 30.18 in 10.0 mi NE 10.4 mph - N/A   Mostly Cloudy
12:53 PM 82.9 °F 85.8 °F 68.0 °F 60% 30.17 in 10.0 mi NNE 10.4 mph - N/A   Mostly Cloudy
1:53 PM 84.9 °F 85.9 °F 63.0 °F 48% 30.17 in 10.0 mi NNE 5.8 mph - N/A   Scattered Clouds
2:53 PM 86.0 °F 87.6 °F 64.9 °F 49% 30.15 in 10.0 mi NE 6.9 mph - N/A   Scattered Clouds
3:53 PM 87.1 °F 88.9 °F 64.9 °F 48% 30.14 in 10.0 mi NNE 10.4 mph - N/A   Scattered Clouds
4:53 PM 86.0 °F 88.2 °F 66.0 °F 51% 30.12 in 10.0 mi Variable 5.8 mph - N/A   Mostly Cloudy
5:53 PM 84.9 °F 86.6 °F 64.9 °F 51% 30.12 in 10.0 mi ENE 6.9 mph - N/A   Mostly Cloudy
6:53 PM 82.0 °F 85.9 °F 70.0 °F 67% 30.12 in 10.0 mi East 6.9 mph - N/A   Overcast
7:53 PM 80.1 °F 83.8 °F 72.0 °F 76% 30.13 in 10.0 mi ESE 9.2 mph - N/A   Mostly Cloudy
8:53 PM 78.1 °F - 71.1 °F 79% 30.14 in 10.0 mi ESE 6.9 mph - 0.00 in   Mostly Cloudy
9:53 PM 78.1 °F - 71.1 °F 79% 30.14 in 10.0 mi East 6.9 mph - N/A   Mostly Cloudy
10:53 PM 78.1 °F - 71.1 °F 79% 30.16 in 10.0 mi East 5.8 mph - N/A   Overcast
11:53 PM 77.0 °F - 71.1 °F 82% 30.15 in 10.0 mi ENE 3.5 mph - N/A   Overcast